[[{"header":{"parameterUnit":"m.s-1","parameterCategory":1,"la1":30.2991,"la2":30.254,"lo1":-89.0895,"lo2":-89.0444,"dy":0.0017,"dx":0.0017,"nx":28,"ny":28,"refTime":"2025-08-30T03:00:00:Z","depth":0,"parameterNumber":2,"parameterNumberName":"U-component_of_WINDS"},"data":[0,0,0,0,0,0,0,0,0,0,0,0,0,0,0,0,0,0,0,0,0,0,0,0,0,0,0,0,0,0,0,0,0,0,0,0,0,0,0,0,0,0,0,0,0,0,0,0,0,0,0,0,0,0,0,0,0,0,-2.8058,-2.8059,0,-2.8129,-2.813,-2.813,-2.809,-2.8088,-2.8086,-2.8085,-2.8156,-2.816,-2.8164,0,0,0,0,0,0,0,0,0,0,0,0,0,-2.7889,-2.7892,-2.8058,-2.8059,-2.806,-2.8129,-2.813,-2.8131,-2.8091,-2.8088,-2.8086,-2.8084,-2.8155,-2.816,-2.8164,0,0,0,0,0,0,0,0,0,0,0,0,0,-2.7961,-2.7893,-2.8058,-2.8048,-2.8048,-2.8128,-2.813,-2.8131,-2.8091,-2.8088,-2.8085,-2.8083,-2.8154,-2.8159,-2.8165,-2.8259,0,0,-2.8182,-2.8184,0,0,0,0,0,0,0,0,-2.7957,-2.7967,-2.8049,-2.8049,-2.8049,-2.8098,-2.8096,-2.8174,-2.8092,-2.8075,-2.8085,-2.8081,-2.8139,-2.8146,-2.8166,-2.8262,-2.8265,-2.8182,-2.8186,-2.8188,-2.819,0,0,0,0,0,0,0,-2.7952,-2.7964,-2.8086,-2.805,-2.805,-2.804,-2.8048,-2.8111,-2.8123,-2.8076,-2.8073,-2.8082,-2.8139,-2.816,-2.8167,-2.8266,-2.8182,-2.8187,-2.8191,-2.8193,-2.8444,-2.8447,0,0,0,0,0,0,-2.7948,-2.796,-2.8084,-2.8088,-2.7995,-2.8046,-2.8054,-2.8085,-2.8122,-2.8125,-2.8085,-2.808,-2.8152,-2.8161,-2.8169,-2.8281,-2.8188,-2.8194,-2.8197,-2.844,-2.8444,-2.8448,0,0,0,0,0,0,-2.7944,-2.7959,-2.8081,-2.8024,-2.8038,-2.8052,-2.8087,-2.8088,-2.8109,-2.8128,-2.813,-2.8104,-2.815,-2.8161,-2.8237,-2.8283,-2.8196,-2.8201,-2.8436,-2.8442,-2.8446,-2.8506,0,0,0,0,0,0,-2.794,-2.7958,-2.7994,-2.8025,-2.8041,-2.8147,-2.809,-2.8092,-2.8119,-2.8114,-2.8147,-2.815,-2.8149,-2.8229,-2.8242,-2.8289,-2.8206,-2.8432,-2.8439,-2.8444,-2.85,-2.8513,-2.8523,0,0,0,0,0,-2.7934,-2.8007,-2.7996,-2.8011,-2.8086,-2.815,-2.8159,-2.8156,-2.8123,-2.8159,-2.8172,-2.8149,-2.8277,-2.8237,-2.8252,-2.8301,-2.8429,-2.8437,-2.8444,-2.8495,-2.851,-2.8523,0,0,0,0,0,0,-2.7981,-2.8011,-2.7998,-2.8084,-2.8115,-2.8143,-2.8188,-2.8172,-2.8213,-2.8206,-2.82,-2.8208,-2.8287,-2.8302,-2.8257,-2.8394,-2.8348,-2.8359,-2.8381,-2.8396,-2.8407,-2.8401,-2.821,0,0,0,0,0,-2.8002,-2.8051,-2.8075,-2.8148,-2.8164,-2.8174,-2.8201,-2.8197,-2.8228,-2.824,-2.8258,-2.8289,-2.8336,-2.8367,-2.8412,-2.8503,-2.8509,-2.8545,-2.8556,-2.8566,-2.8574,-2.8624,-2.864,-2.8472,-2.8472,-2.8472,0,0,-2.8044,-2.8067,-2.8098,-2.8158,-2.8181,-2.8232,-2.8185,-2.824,-2.8278,-2.8249,-2.832,-2.8335,-2.837,-2.8454,-2.8491,-2.8469,-2.8623,-2.8575,-2.8582,-2.8586,-2.8633,-2.8649,-2.8663,-2.8477,-2.8476,-2.8475,0,0,-2.8147,-2.817,-2.8233,-2.8258,-2.8294,-2.83,-2.8316,-2.8347,-2.8355,-2.8428,-2.8407,-2.8452,-2.8533,-2.8559,-2.8582,-2.8698,-2.8678,-2.8713,-2.8772,-2.8821,-2.8834,-2.8845,-2.8886,-2.89,-2.8722,-2.8722,-2.8722,0,-2.8195,-2.8271,-2.8268,-2.8326,-2.8353,-2.833,-2.8394,-2.8418,-2.8467,-2.8486,-2.8461,-2.8562,-2.8584,-2.8673,-2.8702,-2.8722,-2.874,-2.8707,-2.8832,-2.8844,-2.8855,-2.8893,-2.8908,-2.8726,-2.8725,-2.8725,-2.8725,0,-2.8329,-2.8382,-2.8429,-2.8477,-2.851,-2.8571,-2.8577,-2.8611,-2.8604,-2.8613,-2.8688,-2.8713,-2.8763,-2.8784,-2.8778,-2.8873,-2.8858,-2.8833,-2.8785,-2.8874,-2.891,-2.8925,-2.8731,-2.873,-2.8729,-2.8728,0,0,-2.8461,-2.8508,-2.8525,-2.8547,-2.8585,-2.8626,-2.8687,-2.8736,-2.8765,-2.88,-2.885,-2.892,-2.8898,-2.8925,-2.8921,-2.8964,-2.9053,-2.8933,-2.8934,-2.8954,-2.916,-2.9177,-2.9194,-2.9042,-2.9045,-2.9047,-2.9156,0,-2.8566,-2.8671,-2.8671,-2.8768,-2.8817,-2.8797,-2.885,-2.888,-2.8891,-2.8934,-2.8946,-2.8996,-2.8962,-2.8978,-2.902,-2.9034,-2.9094,-2.9026,-2.9088,-2.909,-2.9078,-2.9213,-2.9232,-2.9333,-2.917,-2.9173,-2.9175,0,-2.8701,-2.8741,-2.8844,-2.8876,-2.8897,-2.8944,-2.8989,-2.9031,-2.9065,-2.907,-2.9101,-2.9092,-2.9154,-2.9107,-2.9192,-2.9145,-2.9171,-2.9182,-2.9186,-2.919,-2.9136,-2.9219,-2.9365,-2.938,-2.9197,-2.9195,-2.9194,0,-2.8786,-2.8866,-2.8937,-2.8957,-2.8997,-2.903,-2.9049,-2.908,-2.9109,-2.9149,-2.9168,-2.9215,-2.924,-2.9277,-2.928,-2.9246,-2.9366,-2.9319,-2.9371,-2.9371,-2.9395,-2.9393,-2.9546,-2.9416,-2.9415,-2.9415,-2.9415,0,-2.8902,-2.8965,-2.8976,-2.902,-2.909,-2.909,-2.916,-2.9175,-2.9204,-2.925,-2.9236,-2.928,-2.9284,-2.9329,-2.9333,-2.9403,-2.9414,-2.942,-2.942,-2.942,-2.9419,-2.9435,-2.9427,-2.9419,-2.9418,-2.9417,-2.9417,0,-2.9008,-2.9018,-2.9094,-2.9127,-2.9136,-2.9187,-2.9214,-2.9256,-2.9266,-2.9326,-2.934,-2.9356,-2.9409,-2.9417,-2.9479,-2.9482,-2.9565,-2.9558,-2.9553,-2.9552,-2.9603,-2.9597,-2.9769,-2.9792,-2.9648,-2.965,-2.9651,0,-2.908,-2.9129,-2.9166,-2.9197,-2.9217,-2.9266,-2.9296,-2.9299,-2.9331,-2.9374,-2.9411,-2.9463,-2.9504,-2.959,-2.9607,-2.9655,-2.9648,-2.9706,-2.9655,-2.9654,-2.9647,-2.9644,-2.9648,-2.9714,-2.9716,-2.9717,-2.9718,0,-2.9208,-2.921,-2.9255,-2.9301,-2.9338,-2.9375,-2.9409,-2.9435,-2.9443,-2.948,-2.9534,-2.9566,-2.963,-2.9681,-2.9729,-2.9748,-2.9735,-2.9735,-2.9749,-2.9748,-2.9743,-2.9745,-2.9578,-2.973,-2.9729,-2.9728,-2.9727,-2.9727,-2.9298,-2.934,-2.9373,-2.9423,-2.945,-2.9483,-2.9524,-2.954,-2.9585,-2.9637,-2.9637,-2.9696,-2.973,-2.9792,-2.9815,-2.9862,-2.9843,-2.9864,-2.9869,-2.9874,-2.9878,-2.9738,-2.9871,-2.987,-2.987,-2.987,-2.9869,0,-2.9423,-2.9444,-2.949,-2.9539,-2.9579,-2.9564,-2.9602,-2.9636,-2.9688,-2.9721,-2.9763,-2.9825,-2.9875,-2.9898,-2.9947,-2.998,-2.9975,-2.9993,-2.999,-2.9994,-2.9892,-2.9874,-2.9996,-2.9996,-2.9996,-2.9996,-2.9996,-2.9996,-2.9493,-2.9562,-2.957,-2.9653,-2.9673,-2.9731,-2.9754,-2.9785,-2.9811,-2.9882,-2.9923,-2.9938,-2.9967,-3.0018,-3.0064,-3.0069,-3.0088,-3.0108,-3.011,-3.0014,-3.0001,-2.9989,-2.9972,-3.0112,-3.0112,-3.0208,-3.0209,-3.0209]},{"header":{"parameterUnit":"m.s-1","parameterCategory":1,"la1":30.2991,"la2":30.254,"lo1":-89.0895,"lo2":-89.0444,"dy":0.0017,"dx":0.0017,"nx":28,"ny":28,"refTime":"2025-08-30T03:00:00:Z","depth":0,"parameterNumber":3,"parameterNumberName":"V-component_of_WINDS"},"data":[0,0,0,0,0,0,0,0,0,0,0,0,0,0,0,0,0,0,0,0,0,0,0,0,0,0,0,0,0,0,0,0,0,0,0,0,0,0,0,0,0,0,0,0,0,0,0,0,0,0,0,0,0,0,0,0,0,0,1.2799,1.2798,0,1.2714,1.2713,1.2712,1.2667,1.2667,1.2667,1.2667,1.2575,1.2573,1.2571,0,0,0,0,0,0,0,0,0,0,0,0,0,1.2919,1.2918,1.2799,1.2798,1.2797,1.2714,1.2713,1.2711,1.2667,1.2667,1.2667,1.2666,1.2576,1.2573,1.2571,0,0,0,0,0,0,0,0,0,0,0,0,0,1.2854,1.2917,1.2799,1.2764,1.276,1.2714,1.2713,1.2711,1.2667,1.2667,1.2667,1.2666,1.2577,1.2574,1.257,1.255,0,0,1.2559,1.2558,0,0,0,0,0,0,0,0,1.2858,1.285,1.2771,1.2767,1.2762,1.2701,1.2722,1.2657,1.2667,1.2702,1.2667,1.2666,1.2617,1.261,1.2594,1.2546,1.2542,1.2559,1.2557,1.2555,1.2554,0,0,0,0,0,0,0,1.2862,1.2853,1.2765,1.2769,1.2764,1.2752,1.2743,1.2709,1.2661,1.2699,1.2696,1.2686,1.2615,1.2598,1.2592,1.2541,1.2559,1.2556,1.2554,1.2552,1.2473,1.2473,0,0,0,0,0,0,1.2873,1.2857,1.2768,1.2762,1.2811,1.275,1.274,1.272,1.2661,1.2652,1.2687,1.2685,1.2604,1.2596,1.2588,1.2562,1.2555,1.2552,1.255,1.2473,1.2473,1.2473,0,0,0,0,0,0,1.2876,1.2865,1.2771,1.2809,1.2796,1.2748,1.2727,1.2719,1.2702,1.2652,1.2643,1.2678,1.2603,1.2593,1.2561,1.2558,1.2551,1.2547,1.2473,1.2473,1.2473,1.2508,0,0,0,0,0,0,1.2879,1.2867,1.2859,1.2809,1.2794,1.2746,1.2727,1.2717,1.2696,1.2693,1.2642,1.2633,1.2603,1.2566,1.2557,1.2553,1.2545,1.2473,1.2473,1.2473,1.2507,1.2509,1.2511,0,0,0,0,0,1.2884,1.2871,1.2859,1.2848,1.2784,1.2746,1.2737,1.2703,1.2696,1.2688,1.2656,1.2635,1.256,1.2563,1.2553,1.2547,1.2473,1.2473,1.2473,1.2506,1.2509,1.2511,0,0,0,0,0,0,1.2921,1.2864,1.285,1.2821,1.2789,1.2738,1.2727,1.2707,1.2675,1.2673,1.2631,1.262,1.2591,1.2566,1.257,1.2525,1.2514,1.2512,1.2543,1.2545,1.2547,1.2554,1.2542,0,0,0,0,0,1.2926,1.2901,1.2852,1.2831,1.2816,1.2774,1.2756,1.2733,1.2698,1.2683,1.2649,1.2614,1.2582,1.2562,1.253,1.2503,1.2491,1.2494,1.2497,1.2499,1.2497,1.2481,1.2482,1.2473,1.2473,1.2473,0,0,1.2936,1.2902,1.2888,1.2838,1.281,1.2784,1.2763,1.2736,1.2716,1.2678,1.2646,1.262,1.2578,1.2548,1.2533,1.2526,1.2497,1.2499,1.2501,1.2498,1.2481,1.2482,1.2483,1.2473,1.2473,1.2473,0,0,1.294,1.2912,1.2892,1.2865,1.2824,1.2797,1.2792,1.2745,1.2726,1.2693,1.2665,1.264,1.2587,1.2558,1.2537,1.2533,1.2512,1.2523,1.2535,1.252,1.252,1.2521,1.252,1.252,1.2522,1.2522,1.2522,0,1.2957,1.2918,1.2884,1.2859,1.2838,1.2805,1.2784,1.2759,1.2709,1.2695,1.2688,1.2622,1.2591,1.2554,1.2554,1.2537,1.253,1.2529,1.2523,1.2523,1.2523,1.2522,1.2521,1.2524,1.2524,1.2523,1.2523,0,1.2941,1.2914,1.2903,1.2858,1.2835,1.2812,1.2774,1.2756,1.2735,1.2708,1.2675,1.2638,1.2598,1.2588,1.2566,1.2548,1.2545,1.2532,1.2519,1.2527,1.2524,1.2523,1.2526,1.2526,1.2525,1.2525,0,0,1.2965,1.2903,1.2899,1.2879,1.2831,1.281,1.2785,1.2748,1.2733,1.27,1.2679,1.2635,1.2623,1.2598,1.2574,1.2561,1.256,1.2548,1.2547,1.2552,1.2538,1.2549,1.2549,1.2547,1.2546,1.2546,1.2542,0,1.2963,1.292,1.2889,1.2857,1.2832,1.2801,1.278,1.2748,1.2723,1.2697,1.2668,1.2638,1.2624,1.2609,1.2595,1.2563,1.2557,1.2563,1.2525,1.2524,1.2537,1.2548,1.2558,1.2556,1.2541,1.2541,1.254,0,1.2954,1.2924,1.2891,1.2847,1.2836,1.2817,1.2782,1.2758,1.2721,1.2703,1.2678,1.2653,1.2625,1.2616,1.2578,1.2583,1.2566,1.2548,1.2547,1.2542,1.2533,1.2543,1.2555,1.2555,1.2539,1.2539,1.2539,0,1.2976,1.2927,1.2901,1.2884,1.2833,1.2821,1.2798,1.2762,1.2742,1.271,1.2697,1.2662,1.2643,1.2616,1.2583,1.2579,1.2548,1.2535,1.2532,1.2533,1.2526,1.2527,1.2536,1.2515,1.2515,1.2515,1.2515,0,1.2977,1.2957,1.291,1.2894,1.2871,1.2836,1.2814,1.2789,1.2757,1.2735,1.2705,1.2685,1.2642,1.2616,1.2589,1.2562,1.2553,1.2538,1.2531,1.254,1.2542,1.2528,1.2527,1.2515,1.2515,1.2515,1.2515,0,1.2997,1.2964,1.2934,1.2888,1.2876,1.2862,1.2822,1.2805,1.2779,1.2751,1.2743,1.2701,1.2669,1.2633,1.2589,1.2571,1.2545,1.2535,1.2558,1.2554,1.2553,1.2554,1.2552,1.2551,1.2532,1.2532,1.2532,0,1.2999,1.2984,1.2938,1.2922,1.2901,1.2875,1.2855,1.282,1.28,1.2759,1.2746,1.2713,1.2684,1.2635,1.26,1.2566,1.2555,1.2557,1.2549,1.256,1.2555,1.2556,1.2555,1.2559,1.2559,1.256,1.256,0,1.3007,1.2993,1.2966,1.2934,1.2911,1.2884,1.2855,1.2843,1.2802,1.2782,1.275,1.2728,1.2684,1.2651,1.2613,1.2589,1.2568,1.2563,1.256,1.2569,1.2584,1.2576,1.2564,1.2563,1.2562,1.2562,1.2562,1.2562,1.3018,1.3004,1.297,1.2941,1.2916,1.289,1.2873,1.2845,1.2818,1.2781,1.2761,1.273,1.2694,1.2642,1.2619,1.2593,1.2586,1.2582,1.2581,1.258,1.2583,1.2588,1.2586,1.2586,1.2586,1.2585,1.2585,0,1.3025,1.3002,1.2976,1.2938,1.2916,1.2899,1.2867,1.2849,1.2822,1.2792,1.2765,1.2729,1.2697,1.266,1.2626,1.2612,1.2602,1.2605,1.2605,1.26,1.2592,1.2597,1.2614,1.2614,1.2614,1.2614,1.2614,1.2614,1.3026,1.3001,1.2982,1.2944,1.292,1.2891,1.2874,1.285,1.2826,1.2787,1.2761,1.2738,1.2705,1.2668,1.2638,1.2628,1.2617,1.2623,1.261,1.2603,1.26,1.2598,1.2603,1.2621,1.2621,1.262,1.262,1.262]}]]